TimeGMT,TemperatureF,Dew PointF,Humidity,Sea Level PressureIn,VisibilityMPH,Wind Direction,Wind SpeedMPH,Gust SpeedMPH,PrecipitationIn,Events,Conditions,WindDirDegrees,DateUTC
6:50 AM,48.2,42.8,82,29.86,6.2,SW,10.4,-,N/A,Rain,Light Rain,230,2012-11-23 06:50:00
7:20 AM,50.0,42.8,76,29.86,6.2,SW,12.7,-,N/A,,Mostly Cloudy,230,2012-11-23 07:20:00
7:50 AM,50.0,42.8,76,29.86,6.2,SW,10.4,-,N/A,,Scattered Clouds,230,2012-11-23 07:50:00
8:20 AM,50.0,42.8,76,29.89,6.2,SW,9.2,-,N/A,,Partly Cloudy,220,2012-11-23 08:20:00
8:50 AM,50.0,44.6,82,29.89,6.2,SSW,10.4,-,N/A,,Scattered Clouds,210,2012-11-23 08:50:00
9:20 AM,50.0,44.6,82,29.89,6.2,SW,10.4,-,N/A,,Scattered Clouds,220,2012-11-23 09:20:00
9:50 AM,50.0,44.6,82,29.92,6.2,SW,9.2,-,N/A,,Scattered Clouds,220,2012-11-23 09:50:00
10:20 AM,50.0,44.6,82,29.92,6.2,SW,10.4,-,N/A,,Scattered Clouds,220,2012-11-23 10:20:00
10:50 AM,50.0,44.6,82,29.92,6.2,SW,9.2,-,N/A,,Scattered Clouds,220,2012-11-23 10:50:00
11:20 AM,51.8,44.6,76,29.92,6.2,SSW,9.2,-,N/A,,Scattered Clouds,210,2012-11-23 11:20:00
11:50 AM,50.0,42.8,76,29.92,6.2,SSW,8.1,-,N/A,,Scattered Clouds,210,2012-11-23 11:50:00
12:20 PM,50.0,42.8,76,29.92,6.2,SSW,6.9,-,N/A,,Scattered Clouds,210,2012-11-23 12:20:00
12:50 PM,50.0,42.8,76,29.92,6.2,SW,8.1,-,N/A,,Scattered Clouds,220,2012-11-23 12:50:00
1:20 PM,50.0,44.6,82,29.92,6.2,SSW,9.2,-,N/A,,Partly Cloudy,200,2012-11-23 13:20:00
1:50 PM,51.8,44.6,76,29.92,6.2,SSW,8.1,-,N/A,,Partly Cloudy,210,2012-11-23 13:50:00
2:20 PM,51.8,44.6,76,29.92,6.2,SSW,8.1,-,N/A,,Partly Cloudy,210,2012-11-23 14:20:00
2:50 PM,51.8,44.6,76,29.92,6.2,SSW,9.2,-,N/A,,Partly Cloudy,210,2012-11-23 14:50:00
3:20 PM,50.0,44.6,82,29.92,6.2,SSW,8.1,-,N/A,,Partly Cloudy,210,2012-11-23 15:20:00
3:50 PM,50.0,44.6,82,29.95,6.2,SW,8.1,-,N/A,,Partly Cloudy,220,2012-11-23 15:50:00
4:20 PM,50.0,42.8,76,29.95,6.2,SSW,6.9,-,N/A,,Partly Cloudy,210,2012-11-23 16:20:00
4:50 PM,50.0,42.8,76,29.95,6.2,SSW,6.9,-,N/A,,Partly Cloudy,210,2012-11-23 16:50:00
5:20 PM,48.2,42.8,82,29.95,6.2,SSW,5.8,-,N/A,,Partly Cloudy,200,2012-11-23 17:20:00
5:50 PM,48.2,42.8,82,29.95,6.2,SSW,4.6,-,N/A,,Partly Cloudy,210,2012-11-23 17:50:00
6:20 PM,50.0,42.8,76,29.95,6.2,South,5.8,-,N/A,,Partly Cloudy,190,2012-11-23 18:20:00
6:50 PM,50.0,42.8,76,29.95,6.2,South,6.9,-,N/A,,Partly Cloudy,180,2012-11-23 18:50:00
7:20 PM,50.0,42.8,76,29.98,6.2,South,5.8,-,N/A,,Partly Cloudy,180,2012-11-23 19:20:00